Regional Weather Roundup
Issued by NWS

Home | Current Version | Previous Version | Text Only | Print | Product List | Glossary On
Versions: 1 2 3 4 5 6 7 8 9 10 11 12 13 14 15 16 17 18 19 20 21 22 23 24 25 26 27 28 29 30 31 32 33 34 35 36 37 38 39 40 41 42 43 44 45 46 47 48 49 50
000
ASUS43 KFSD 290902
RWRSD

WEATHER ROUNDUP FOR SOUTH DAKOTA
NATIONAL WEATHER SERVICE SIOUX FALLS SD
300 AM CST THU JAN 29 2015

NOTE: "FAIR" INDICATES FEW OR NO CLOUDS BELOW 12,000 FEET WITH NO
SIGNIFICANT WEATHER AND/OR OBSTRUCTIONS TO VISIBILITY.


SDZ001>005-009-010-012>017-291000-
NORTHWEST AND NORTH CENTRAL SOUTH DAKOTA

CITY           SKY/WX    TMP DP  RH WIND       PRES   REMARKS
BUFFALO          N/A     33  23  66 NW20      30.29R WCI  21
FAITH            N/A     34  23  64 NW24G38   30.31R WCI  21
MOBRIDGE       CLOUDY    35  27  72 NW16      30.26R WCI  25
$$

SDZ012>016-024>037-041>051-057-063-072>074-291000-
SOUTHWEST AND SOUTH CENTRAL SOUTH DAKOTA

CITY           SKY/WX    TMP DP  RH WIND       PRES   REMARKS
RAPID CTY ARPT MOCLDY    33  24  69 N24G33    30.35R WCI  20
PIERRE         CLOUDY    35  27  72 NW17      30.29R WCI  25
CUSTER         CLEAR     31   8  38 N8        30.28R WCI  23
ELLSWORTH AFB  CLOUDY    33  25  70 N23G30    30.35R WCI  21
PHILIP         CLOUDY    35  26  69 NW12      30.36R WCI  27
PINE RIDGE     CLEAR     31  23  72 NW12G22   30.36R WCI  22
WINNER         CLOUDY    37  27  67 NW25G36   30.29R
$$

SDZ004>011-016>023-039-040-291000-
NORTHEAST SOUTH DAKOTA

CITY           SKY/WX    TMP DP  RH WIND       PRES   REMARKS
ABERDEEN       CLOUDY    32  25  75 N18G30    30.24R WCI  20
WATERTOWN      CLOUDY    29  24  82 N30G36    30.13R WCI  13
SISSETON         N/A     28  24  85 N29G39    30.16R WCI  12
$$

SDZ017-020-022-023-036>040-048>070-291000-
SOUTHEAST SOUTH DAKOTA

CITY           SKY/WX    TMP DP  RH WIND       PRES   REMARKS
SIOUX FALLS    CLOUDY    33  27  78 NW24G32   30.11R WCI  20
HURON          CLOUDY    33  28  81 NW17G29   30.21R WCI  22
MITCHELL       CLOUDY    34  28  79 NW22G29   30.22R WCI  22
YANKTON        CLOUDY    36  27  69 NW23G36   30.19R
$$

ABBREVIATIONS USED IN REMARKS
   TC - TEMPERATURE IN CELSIUS
  WCI - WIND CHILL INDEX
   HX - HEAT INDEX
  VSB - VISIBILITY



USA.gov is the U.S. government's official web portal to all federal, state and local government web resources and services.